{"data":{"norad_id":59444,"epoch":"2026-09-21T22:47:55.334400Z","epoch_age_seconds":138280,"freshness":"FRESH","line1":"1 59444U 24066C   26264.94994600  .00006725  00000+0  47283-3 0  9991","line2":"2 59444  45.6024 108.5435 0001177 241.3373 118.7393 15.05819812127084","mean_motion":15.05819812,"eccentricity":0.0001177,"inclination_deg":45.6024,"raan_deg":108.5435,"arg_perigee_deg":241.3373,"mean_anomaly_deg":118.7393,"bstar":0.00047283,"rev_number":12708,"period_min":95.628971575784,"perigee_km":548.17499862943,"apogee_km":549.80564440091,"semimajor_km":6927.1273215152,"source":"CELESTRAK","updated_at":"2026-09-23T09:00:19.374394Z"}}